Weather in Krasny Yar

Russia / Primorsky Krai     46°32′27″N   135°21′41″E
temp.,
°C
wind,
m/s
gust,
m/s
humid.,
%
clouds,
%
prec.,
mm/h
press.,
hPa
HPBL,
m
23 april, fri
fri2301:00+12sse2237100 0.0 102323
04:00+10s2247100 0.0 102420
07:00+10sse1149100 0.0 102426
10:00+16sw3635100 0.0 1023805
13:00+18sw4732100 0.0 10231102
16:00+18wsw4737100 0.0 10211228
19:00+17w4847100 0.0 1021720
22:00+13wsw2670100 0.1 1022335
24 april, sat
sat2401:00+10sw2587100 1.0 1022415
04:00+10w3777100 1.2 1021639
07:00+7nw2453100 0.1 1022217
10:00+10wnw3541100 0.1 10211568
13:00+11wnw5626100 0.0 10191980
16:00+10nw5721100 0.0 10182098
19:00+10nw37230 0.0 1017848
22:00+5wsw113438 0.0 101810
25 april, sun
sun2501:00+3ssw1143100 0.0 101815
04:00+1ssw235025 0.0 101644
07:00+4w41142100 0.0 10151399
10:00+6nw6934100 0.2 10142765
13:00+7nnw6929100 0.1 10152815
16:00+8n71121100 0.3 10163500
19:00+7n37244 0.0 10182099
22:00+2ese11370 0.0 102011
26 april, mon
mon2601:000sse21420 0.0 102116
04:00−1sse22460 0.0 102129
07:00+1s23435 0.0 1021102
10:00+8sw352512 0.0 1020940
13:00+13wsw351716 0.0 10181952
16:00+15wsw361890 0.0 10152143
19:00+13ssw24285 0.0 1014102
22:00+7sse2241100 0.0 101525
27 april, tue
tue2701:00+7sse224699 0.0 101531
04:00+6se2250100 0.0 101420
07:00+7se2250100 0.0 101445
10:00+14ssw473642 0.0 10121060
13:00+19ssw5833100 0.0 10101710
16:00+20sw61033100 0.0 10072743
19:00+17wsw374790 0.0 1007752
22:00+14s41058100 0.0 10081240